{"data":{"norad_id":48798,"epoch":"2026-05-24T20:08:01.658112Z","epoch_age_seconds":79082,"freshness":"FRESH","line1":"1 48798U 21045AH  26144.83890808 -.00000033  00000+0 -12132-3 0  9998","line2":"2 48798  87.8998 263.8407 0001395  99.1831 260.9457 13.15546736241344","mean_motion":13.15546736,"eccentricity":0.0001395,"inclination_deg":87.8998,"raan_deg":263.8407,"arg_perigee_deg":99.1831,"mean_anomaly_deg":260.9457,"bstar":-0.00012132,"rev_number":24134,"period_min":109.46019328651,"perigee_km":1200.7203372825,"apogee_km":1202.8351334937,"semimajor_km":7579.9147353881,"source":"CELESTRAK","updated_at":"2026-05-25T13:38:22.448180Z"}}